Content
SEND FEEDBACK

Daily
Averages
Monthly
Summary
Mexico

CANCUN, QUINTANA ROO


Home > North America > Mexico > Quintana Roo
Elevation: 30 feet     Latitude: 21 09N     Longitude: 086 49W

WEATHER
 
SELECT A DAY
Number of Records: 163,723;   Date Range: 1/1/95 - 7/28/14
 
SHARE

PRINT THIS DATA

[ ← Previous Day ]
WEATHER ALMANAC - JANUARY 9, 2013
[ Next Day → ]
[ °C ]   °F
Weather ElementAverageHighLow
Temperature80.8 °F84.2 °F (9:43 am)77 °F (1:40 am)
Dewpoint73 °F82.4 °F (8:47 am)71.6 °F (1:40 am)
Humidity77.4 %100 % (8:47 am)66 % (9:43 am)
Barometer30.03 in30.08 in (8:47 am)29.98 in (2:40 am)
Wind Speed13.1 mph21.9 mph (9:43 am)
Weather ElementAverage
Visibility7 mi
Wind DirectionESE (114.3 °)

Weather ElementTotal
Precipitation---
Cooling Degree Days15.6 (Base 65)
Growing Degree Days30.6 (Base 50)
Averaged from 23 records on January 9, 2013
WEATHER CONDITIONS BREAKOUT
WIND DIRECTION BREAKOUT
WEATHER BY HOUR - JANUARY 9, 2013
[ °C ]   °F
Local TimeTemperatureDewpointHumidityBarometerVisibilityWind DirectionWind SpeedGust SpeedPrecipitationEventsConditions
1:40 AM77.0 °F71.6 °F83 %30.00 in7.0 miEast (100°)5.8 mphScattered Clouds
2:40 AM78.8 °F71.6 °F78 %29.98 in7.0 miESE (110°)8.1 mphScattered Clouds
3:45 AM78.8 °F71.6 °F78 %29.98 in7.0 miESE (110°)10.4 mphScattered Clouds
4:40 AM78.8 °F71.6 °F78 %29.99 in7.0 miEast (100°)8.1 mphScattered Clouds
5:44 AM78.8 °F71.6 °F78 %30.01 in7.0 miESE (120°)12.7 mphScattered Clouds
6:43 AM78.8 °F71.6 °F78 %30.02 in7.0 miESE (110°)9.2 mphScattered Clouds
7:48 AM80.6 °F71.6 °F74 %30.04 in7.0 miESE (120°)17.3 mphScattered Clouds
8:47 AM82.4 °F82.4 °F100 %30.08 in7.0 miESE (120°)6.9 mphScattered Clouds
9:43 AM84.2 °F71.6 °F66 %30.08 in7.0 miSE (130°)21.9 mphScattered Clouds
10:47 AM84.2 °F73.4 °F70 %30.07 in7.0 miESE (120°)15.0 mphScattered Clouds
11:44 AM84.2 °F71.6 °F66 %30.06 in7.0 miESE (120°)17.3 mphScattered Clouds
12:41 PM84.2 °F73.4 °F70 %30.03 in7.0 miESE (120°)17.3 mphMostly Cloudy
1:41 PM84.2 °F71.6 °F66 %30.01 in7.0 miESE (120°)17.3 mphMostly Cloudy
2:41 PM82.4 °F73.4 °F74 %30.02 in7.0 miESE (120°)13.8 mphMostly Cloudy
3:42 PM82.4 °F73.4 °F74 %30.01 in7.0 miESE (110°)12.7 mphMostly Cloudy
4:40 PM80.6 °F73.4 °F79 %30.02 in7.0 miESE (110°)12.7 mphMostly Cloudy
5:45 PM80.6 °F73.4 °F79 %30.04 in7.0 miESE (120°)12.7 mphMostly Cloudy
6:43 PM80.6 °F73.4 °F79 %30.04 in7.0 miESE (120°)13.8 mphMostly Cloudy
7:41 PM80.6 °F73.4 °F79 %30.05 in7.0 miESE (120°)15.0 mphMostly Cloudy
8:40 PM78.8 °F73.4 °F83 %30.06 in7.0 miESE (110°)13.8 mphMostly Cloudy
9:48 PM78.8 °F73.4 °F83 %30.08 in7.0 miESE (110°)12.7 mphMostly Cloudy
10:47 PM78.8 °F73.4 °F83 %30.08 in7.0 miEast (100°)11.5 mphMostly Cloudy
11:46 PM78.8 °F73.4 °F83 %30.05 in7.0 miESE (110°)16.1 mphScattered Clouds
Hourly data recorded from MMUN, located miles away from Cancun, Quintana Roo







STORIES FROM OUR PARTNERS